Overview Statistics Trail Chart Weather Telemetry Raw packets
 

This is the latest recevied weather packets stored in our database for station/object N5CSU. If no packets are shown the sender has not sent any weather packets the latest 10 day(s).

<< 10 11 12 13 14 15 16 >>
Time Temp. Humidity Pressure Rain* Wind** Luminosity Snow
1788547943 36.11° C 48% 1013.6 hPa 0 mm - 25 W/m² -
1788547641 35.56° C 46% 1013.8 hPa 0 mm - 114 W/m² -
1788547337 36.11° C 47% 1013.8 hPa 0 mm - 176 W/m² -
1788547033 35.56° C 48% 1013.7 hPa 0 mm - 62 W/m² -
1788546733 35.56° C 47% 1013.9 hPa 0 mm - 41 W/m² -
1788546428 36.11° C 47% 1013.9 hPa 0 mm - 197 W/m² -
1788546124 35.56° C 47% 1013.9 hPa 0 mm - 203 W/m² -
1788545819 35.56° C 48% 1014.3 hPa 0 mm - 326 W/m² -
1788545518 35.56° C 49% 1014.2 hPa 0 mm - 180 W/m² -
1788545214 35.56° C 49% 1014.2 hPa 0 mm - 163 W/m² -
1788544909 35.56° C 47% 1014.4 hPa 0 mm - 192 W/m² -
1788544626 35° C 49% 1014.6 hPa 0 mm - 563 W/m² -
1788544307 35.56° C 48% 1014.6 hPa 0 mm - 83 W/m² -
1788544002 35° C 49% 1014.6 hPa 0 mm - 382 W/m² -
1788543697 35° C 50% 1014.6 hPa 0 mm - 271 W/m² -
1788543393 34.44° C 51% 1014.5 hPa 0 mm - 439 W/m² -
1788543083 34.44° C 52% 1014.9 hPa 0 mm - 132 W/m² -
1788542779 34.44° C 52% 1014.8 hPa 0 mm - 38 W/m² -
1788542478 34.44° C 52% 1015 hPa 0 mm - 88 W/m² -
1788542173 34.44° C 53% 1014.9 hPa 0 mm - 270 W/m² -
1788541869 34.44° C 52% 1015.1 hPa 0 mm - 408 W/m² -
1788541564 34.44° C 55% 1015.1 hPa 0 mm - 158 W/m² -
1788541254 34.44° C 56% 1015 hPa 0 mm - 69 W/m² -
1788540952 33.89° C 56% 1015 hPa 0 mm - 149 W/m² -
1788540647 33.89° C 55% 1015.1 hPa 0 mm - 144 W/m² -

* Rain latest hour (hover to see other rain measurements)
** Current wind speed in m/s (hover to see current wind gust speed)